Back to catalog

SCOUT B-1 R/B

AlivePO
NORAD 6180·ROCKET BODY·🇺🇸 United States

Launched Sep 2, 1972 from Vandenberg Space Force Base

Loading…

Next Passes (next 24 hours)

TLE

FreshSource: Space-Track

Epoch: Sep 14, 2026, 07:47 UTC

1 06180U 72069B   26257.32498313  .00001309  00000-0  18723-3 0  9991
2 06180  90.0747 221.2996 0032748 185.9714 174.1122 14.75827114840846

Track SCOUT B-1 R/B in real time with AllMySat

Download on the App Store